User: anonymous   Login
Location: Unspecified
(0.0000°N, 0.0000°E)
Time: 13:44:29
(UTC+00:00)
Language:

Resurs 1-3 - Orbit

View from above orbital plane
View from above orbital plane
View from above satellite
View from above satellite

Ground track
Ground track

The orbit data is extracted from the following two-line orbital elements,

1 23342U 94074A   17114.71090619 +.00000170 +00000-0 +30084-4 0  9992
2 23342 098.0841 152.6708 0000837 087.6982 272.4325 14.79259875209871
Epoch (UTC): 24 April 2017 17:03:42
Eccentricity: 0.0000837
inclination: 98.0841°
perigee height: 631 km
apogee height: 632 km
right ascension of ascending node: 152.6708°
argument of perigee: 87.6982°
revolutions per day: 14.79259875
mean anomaly at epoch: 272.4325°
orbit number at epoch: 20987

The dashed part of the orbit path shows where the satellite is in the earth's shadow,  

DLR